This is the latest recevied weather packets stored in our database for station/object W4DHW-4. If no packets are shown the sender has not sent any weather packets the latest 10 day(s).
| Time | Temp. | Humidity | Pressure | Rain* | Wind** | Luminosity | Snow |
|---|---|---|---|---|---|---|---|
| 1778019374 | 25° C | 36% | 1011.7 hPa | 0 mm | - | 137 W/m² | - |
| 1778019071 | 25° C | 37% | 1011.9 hPa | 0 mm | - | 144 W/m² | - |
| 1778018769 | 24.44° C | 37% | 1011.9 hPa | 0 mm | - | 134 W/m² | - |
| 1778018466 | 25° C | 37% | 1012.3 hPa | 0 mm | - | 118 W/m² | - |
| 1778018164 | 25° C | 37% | 1011.9 hPa | 0 mm | - | 134 W/m² | - |
| 1778017861 | 25° C | 37% | 1011.9 hPa | 0 mm | - | 210 W/m² | - |
| 1778017559 | 25° C | 37% | 1011.7 hPa | 0 mm | - | 291 W/m² | - |
| 1778017256 | 25° C | 37% | 1011.8 hPa | 0 mm | - | 229 W/m² | - |
| 1778016954 | 25° C | 36% | 1011.9 hPa | 0 mm | - | 131 W/m² | - |
| 1778016649 | 25° C | 36% | 1011.9 hPa | 0 mm | - | 148 W/m² | - |
| 1778016340 | 25° C | 35% | 1012.1 hPa | 0 mm | - | 168 W/m² | - |
| 1778016038 | 25° C | 34% | 1011.7 hPa | 0 mm | - | 169 W/m² | - |
| 1778015735 | 25.56° C | 33% | 1011.6 hPa | 0 mm | - | 167 W/m² | - |
| 1778015431 | 25.56° C | 32% | 1011.7 hPa | 0 mm | - | 200 W/m² | - |
| 1778015128 | 25.56° C | 33% | 1011.9 hPa | 0 mm | - | 197 W/m² | - |
| 1778014825 | 25.56° C | 33% | 1011.7 hPa | 0 mm | - | 190 W/m² | - |
| 1778014523 | 25.56° C | 32% | 1011.7 hPa | 0 mm | - | 187 W/m² | - |
| 1778014220 | 26.11° C | 31% | 1011.9 hPa | 0 mm | - | 182 W/m² | - |
| 1778013918 | 26.11° C | 31% | 1011.8 hPa | 0 mm | - | 184 W/m² | - |
| 1778013615 | 25.56° C | 31% | 1011.8 hPa | 0 mm | - | 168 W/m² | - |
| 1778013312 | 26.11° C | 32% | 1011.9 hPa | 0 mm | - | 139 W/m² | - |
| 1778013008 | 26.11° C | 32% | 1011.7 hPa | 0 mm | - | 138 W/m² | - |
| 1778012704 | 26.11° C | 32% | 1011.9 hPa | 0 mm | - | 138 W/m² | - |
| 1778012400 | 26.11° C | 31% | 1011.8 hPa | 0 mm | - | 134 W/m² | - |
| 1778012097 | 26.11° C | 32% | 1011.7 hPa | 0 mm | - | 130 W/m² | - |
* Rain latest hour (hover to see other rain measurements)
** Current wind speed in m/s (hover to see current wind gust speed)